カタログに戻る

STARLINK-38083

運用中通信SSO
NORAD 100385·PAYLOAD·🇺🇸 United States

打ち上げ Aug 19, 2026 から Vandenberg Space Force Base

Loading…

次のパス (今後24時間)

TLE

最新Source: Space-Track

元期: Sep 14, 2026, 12:50 UTC

1 A0385U 26190Q   26257.53537128  .00180149  00000-0  11908-2 0  9994
2 A0385  97.2850 111.5503 0004304 172.1616 187.9717 15.75036228  5431

AllMySatでSTARLINK-38083をリアルタイム追跡

Download on the App Store